Regional Weather Roundup
Issued by NWS Wakefield, VA

Home | Current Version | Previous Version | Graphics & Text | Print | Product List | Glossary On
Versions: 1 2 3 4 5 6 7 8 9 10 11 12 13 14 15 16 17 18 19 20 21 22 23 24 25 26 27
000
ASUS41 KAKQ 181214
RWRAKQ

REGIONAL WEATHER ROUNDUP
NATIONAL WEATHER SERVICE WAKEFIELD VA
700 AM EST SAT NOV 18 2017

Note: "fair" indicates few or no clouds below 12,000 feet with no
significant weather and/or obstructions to visibility. * = Denotes
station may not report precipitation (e.g., rain,snow,etc.),
thunder or fog.

VAZ042-051-052>054-056-181300-
NORTHERN VIRGINIA

CITY           SKY/WX    TMP DP  RH WIND       PRES   REMARKS
WASH NATIONAL  MOCLDY    41  34  76 S13       29.94F
DULLES         MOCLDY    40  32  73 S9        29.89F
FORT BELVOIR   PTCLDY    34  31  89 SE3       29.94F
QUANTICO       NOT AVBL
FREDERICKSBRG* MOCLDY    37  33  87 S6        29.95F
STAFFORD*      PTCLDY    32  32 100 CALM      29.99F
WARRENTON      NOT AVBL
CULPEPER*      CLOUDY    40  31  69 S9        29.90F
MANASSAS*      PTCLDY    42  33  70 S12G20    29.90F
LEESBURG*      PTCLDY    37  32  81 S7        29.89F
WINCHESTER     CLOUDY    37  28  70 SW5       29.83F
FRONT ROYAL*   MOSUNNY   43  28  56 MISG      29.82F
LURAY*         MOSUNNY   43  30  61 S3        29.84F
$$

VAZ048-049-060>072-079>083-181300-
CENTRAL AND SOUTH CENTRAL VIRGINIA

CITY           SKY/WX    TMP DP  RH WIND       PRES   REMARKS
RICHMOND       MOCLDY    55  34  45 S7        30.00F
CHESTERFIELD*  NOT AVBL
PETERSBURG*    PTCLDY   N/A N/A N/A S3        30.02F
HANOVER        CLOUDY    38  33  82 S9        30.00F
TAPPAHANNOCK*    N/A    N/A N/A N/A MISG        N/A
QUINTON*       FAIR      37  33  84 S7        30.00F
CHARLOTTSVILLE PTCLDY    40  31  70 S9        29.89F
GORDONSVILLE*  PTSUNNY   34  32  90 SW5       29.92F
ORANGE*        PTCLDY    34  30  86 S6        29.91F
LOUISA*          N/A     36  31  81 S8          N/A
BUMPASS*       FAIR      38  32  78 CALM      29.95F
FARMVILLE*     CLOUDY    40  37  87 S7        29.96F
CREWE*         FAIR      38  38  99 CALM      29.99F
FORT PICKETT*  NOT AVBL
CHASE CITY*    FAIR      41  36  81 S3        29.99F
CLARKSVILLE*   FAIR      41  34  75 S7        30.00F
SOUTH HILL*    CLOUDY    39  36  89 S7        30.07F
LAWRENCEVILLE* FAIR      38  34  86 CALM      30.01F
EMPORIA*       CLOUDY    34  32  93 SE6       30.04F
$$

VAZ088>098-181300-
SOUTHEAST VIRGINIA

CITY           SKY/WX    TMP DP  RH WIND       PRES   REMARKS
NORFOLK        CLEAR     36  33  89 S6        30.04F
VIRGINIA BEACH MOCLDY    39  34  82 S7        30.05F
NORFOLK NAVAL  MOCLDY    42  36  79 S7        30.05F
WEST POINT*    PTCLDY    39  34  81 S6        30.04F
SALUDA*        FAIR      38  35  87 S6        30.02F
NEWPORT NEWS   PTCLDY    43  35  73 S8        30.04F
LANGLEY AFB    CLEAR     42  36  80 S10       30.04F
FORT EUSTIS    MOCLDY    43  35  73 S9        30.01F
WILLIAMSBURG*  CLOUDY    43  36  75 CALM      30.04F
HR EXEC AP*    NOT AVBL
FRANKLIN*      CLOUDY    36  33  90 S6        30.06F
US460-WAKEFLD  PTCLDY    38  35  89 CALM      30.04F
$$

VAZ020-022-025-037-045-181300-
WEST CENTRAL AND SOUTHWEST VIRGINIA

CITY           SKY/WX    TMP DP  RH WIND       PRES   REMARKS
STAUNTON*      CLOUDY    35  30  81 W3        29.88F
WAYNESBORO*    CLOUDY    40  30  68 CALM      29.86F
HOT SPRINGS VA CLOUDY    46  18  32 SW16      29.86S
LYNCHBURG      CLOUDY    39  32  76 S8        29.94F
DANVILLE       PTCLDY    37  34  89 SW5       29.99F
SOUTH BOSTON*  FAIR      34  33  95 CALM      29.99F
MARTINSVILLE   CLOUDY    39  33  77 SW3       30.00S
ROANOKE        PTCLDY    38  30  73 CALM      29.94F
BLACKSBURG     CLOUDY    35  32  87 CALM      29.94F
DUBLIN*        PTCLDY    38  32  79 CALM      29.93S
MARION*        CLOUDY    38  30  73 CALM      29.94F
HILLSVILLE*    PTCLDY    45  32  61 S10G17    29.92F
RICHLANDS*     FAIR      54  22  29 SW12G21   29.89S
WISE*          CLOUDY    52  32  46 S14G23    29.88F
ABINGDON*      CLOUDY    44  34  68 CALM      29.92F
$$

MDZ021>025-VAZ099-100-181300-
SOUTHERN MARYLAND AND THE DELMARVA PENINSULA

CITY           SKY/WX    TMP DP  RH WIND       PRES   REMARKS
PATUXENT RIVER NOT AVBL
BAY BRIDGE APT PTCLDY    45  36  70 S12       29.96F
LEONARDTOWN    PTCLDY    41  32  70 S7        29.99F
DOVER          PTCLDY    35  35 100 SE8       29.99F
GEORGETOWN     CLEAR     34  30  85 S3        30.02F
EASTON         PTCLDY    37  34  87 S7        30.01F
CAMBRIDGE      CLEAR     34  32  93 SE6       29.99F
SALISBURY      CLEAR     36  33  89 SE3       30.02F
OCEAN CITY     CLEAR     41  37  86 SW6       30.04F
WALLOPS ISLAND CLEAR     40  35  83 SW9       30.03F
ACCOMACK*      CLEAR     39  35  84 S8        30.03F
$$

NCZ012>017-030>032-181300-
NORTH CENTRAL AND EASTERN NORTH CAROLINA

CITY           SKY/WX    TMP DP  RH WIND       PRES   REMARKS
ROANOKE RAPIDS FAIR      36  34  93 CALM      30.06S
RALEIGH        CLOUDY    41  37  86 SW6       30.04F
ELIZABETH CITY CLEAR     38  37  97 S5        30.07F
AHOSKIE*       NOT AVBL
EDENTON*       CLEAR     42  39  90 CALM      30.09S
CURRITUCK*     CLEAR     37  37  99 CALM      30.08F
KILL DEVIL HLS CLEAR     45  38  78 CALM      30.08F
MANTEO         CLEAR     47  39  75 SW7       30.10F
CAPE HATTERAS  CLEAR     38  37  97 CALM      30.10S
TARBORO*       NOT AVBL
GOLDSBORO      MOCLDY    34  32  92 E3        30.05F
WASHINGTON     PTCLDY    35  33  93 CALM      30.09F
GREENVILLE     PTCLDY    34  34 100 CALM      30.10R
NEW BERN       FOG       33  33 100 CALM      30.11R VSB 1/4
WILMINGTON     PTCLDY    37  36  96 E3        30.08F
$$

VAZ048-181300-
ELSEWHERE

CITY           SKY/WX    TMP DP  RH WIND       PRES   REMARKS
HARRISBURG PA  CLOUDY    35  30  82 E6        29.88F
BALTIMORE      MOCLDY    37  31  78 S3        29.93F
ANNAPOLIS      NOT AVBL
ANDREWS AFB    PTCLDY    38  31  78 S9        29.93F
PHILADELPHIA   MOCLDY    38  32  79 S6        29.98F
HENDERSON NC   CLOUDY    37  32  82 S9        30.02F
GREENSBORO     CLOUDY    40  36  86 S7        30.00F
ROCKY MOUNT    PTCLDY    35  35 100 CALM      30.06F
$$

VAZ100-181300-
MARINE

STATION/POSITION TIME  TEMP    WIND        PRES    WAVE   SWELL
                       AIR SEA DIR/SP/G            HT/PER HT/PER
                 (UTC) (F)     (DEG/KT/KT) (MB)    (FT/S) (FT/S)
15NM E FENWICK I 1150   52 59  210/ 14/ 16 1017.0F   2/11   2/11
THOMAS POINT MD  1200   47 53  200/ 25/ 28   N/A
CAPE HENRY BUOY  1200      61                N/A     3/ 4   2/11
CAPE CHARLES BUO 1151      58                N/A     3/ 4
64NM E OF VA BCH 1150   54 60  230/ 16/ 19 1018.6F   3/11   2/11
44100 DUCK FRF   1145      62                N/A     3/12   2/12
44056 DUCK FRF   1200      58                N/A     2/12   2/12
DIAMOND SHLS NC  1150   56 64   40/  4/  6 1019.4R   3/12   3/12
CAPE LOOKOUT NC  1200   54      60/  5/  6 1018.8F
$$




USA.gov is the U.S. government's official web portal to all federal, state and local government web resources and services.